This is the latest recevied weather packets stored in our database for station/object DH4SBM. If no packets are shown the sender has not sent any weather packets the latest 10 day(s).
| Time | Temp. | Humidity | Pressure | Rain* | Wind** | Luminosity | Snow |
|---|---|---|---|---|---|---|---|
| 1777299941 | 21.67° C | 26% | 1021.6 hPa | 0 mm | - | 497 W/m² | - |
| 1777299342 | 21.67° C | 26% | 1021.7 hPa | 0 mm | - | 345 W/m² | - |
| 1777298742 | 21.11° C | 26% | 1021.7 hPa | 0 mm | - | 459 W/m² | - |
| 1777298142 | 21.11° C | 25% | 1021.9 hPa | 0 mm | - | 492 W/m² | - |
| 1777297542 | 20.56° C | 26% | 1022 hPa | 0 mm | - | 677 W/m² | - |
| 1777296942 | 20.56° C | 27% | 1022.2 hPa | 0 mm | - | 633 W/m² | - |
| 1777296342 | 20.56° C | 26% | 1022.2 hPa | 0 mm | - | 548 W/m² | - |
| 1777295742 | 20.56° C | 27% | 1022.3 hPa | 0 mm | - | 538 W/m² | - |
| 1777295142 | 20.56° C | 27% | 1022.5 hPa | 0 mm | - | 564 W/m² | - |
| 1777294542 | 20.56° C | 28% | 1022.6 hPa | 0 mm | - | 598 W/m² | - |
| 1777293336 | 20.56° C | 27% | 1022.8 hPa | 0 mm | - | 689 W/m² | - |
| 1777292736 | 20.56° C | 29% | 1022.8 hPa | 0 mm | - | 705 W/m² | - |
| 1777292136 | 20.56° C | 25% | 1023 hPa | 0 mm | - | 722 W/m² | - |
| 1777291536 | 19.44° C | 27% | 1023.1 hPa | 0 mm | - | 761 W/m² | - |
| 1777289136 | 19.44° C | 33% | 1023.4 hPa | 0 mm | - | 809 W/m² | - |
| 1777288536 | 18.89° C | 34% | 1023.4 hPa | 0 mm | - | 817 W/m² | - |
| 1777287936 | 18.33° C | 35% | 1023.5 hPa | 0 mm | - | 747 W/m² | - |
| 1777287336 | 18.33° C | 36% | 1023.6 hPa | 0 mm | - | 705 W/m² | - |
| 1777286736 | 18.33° C | 35% | 1023.6 hPa | 0 mm | - | 810 W/m² | - |
| 1777286136 | 17.78° C | 35% | 1023.6 hPa | 0 mm | - | 754 W/m² | - |
| 1777285536 | 17.78° C | 38% | 1023.7 hPa | 0 mm | - | 814 W/m² | - |
| 1777284936 | 17.78° C | 40% | 1023.8 hPa | 0 mm | - | 795 W/m² | - |
| 1777282536 | 17.22° C | 41% | 1024.1 hPa | 0 mm | - | 751 W/m² | - |
| 1777281936 | 16.67° C | 41% | 1024.3 hPa | 0 mm | - | 744 W/m² | - |
| 1777281336 | 16.11° C | 41% | 1024.3 hPa | 0 mm | - | 717 W/m² | - |
* Rain latest hour (hover to see other rain measurements)
** Current wind speed in m/s (hover to see current wind gust speed)